STARLINK-1169, 45061

Orbit data source: Space-Track

STARLINK-1169, 45061 is a payload satellite owned by SpaceX/Seattle (US) in LEO that was launched on Wed, 29 Jan 2020 UTC via an FALCON 9 launch vehicle from the Air Force Eastern Test Range (AFETR). Payload-class satellites include a variety of spacecraft equipped with specific instruments for various scientific and technological missions. These include communications satellites like Starlink; space stations such as the ISS; scientific satellites like the Hubble; Earth observation satellites from companies like Planet Labs, Umbra, and HawkEye 360; GPS; miniature CubeSats for education and research; and military/defense satellites.

Loading next visibility...
Identifier
45061, 2020-006T
Orbit
LEO
Country
Flag of USUS
Related business
Manufacturer
SpaceX/Seattle
Mission
Operational Commercial Communications
Bus & Motor
STARLINK, Unknown motor
Mass
260 kg wet, ~248 kg dry
Launch date (UTC)
2020-01-29 (6 years ago)
Launch vehicle
FALCON 9
Launch site
Air Force Eastern Test Range (AFETR)
Object type
Payload
Rocket body
Debris
Shape & HBR
Box + 1 Pan, 10.1 m
Radar Cross Section
13.562 m², Large (>1 m²)

Expand to show TLE details & history
Last TLE update: 12 hours ago

TLE from 12 hours ago
0 STARLINK-1169
1 45061U 20006T   25286.54197614 -.00002529  00000-0 -15101-3 0  9995
2 45061  53.0538 227.1904 0001049  93.6297 266.4812 15.06389793314285
Epoch: 2025-10-13T13:00Z
TLE epoch observation values (Epoch: 2025-10-13T13:00:26.738Z)
Latitude
-0.00002°
Longitude
9.73571°
Altitude
548.167 km
Speed
7.589 km/s
True Right ascension
15h 08m 45s
True Declination
0° 00' 00"
Sunlit
Object was in daylight at epoch
Visualization orbit readout
Latitude
Unknown
Longitude
Unknown
Altitude
Unknown
Speed
Unknown
Apparent Right ascension
Unknown
Apparent Declination
Unknown
Sunlit
N/A
Visualization observer readout
Local Sidereal Time
19:56:40
Azimuth
Unknown
Elevation
Unknown
Doppler factor
Unknown
Orbital elements
Apogee altitude
548.24 km
Perigee altitude
546.787 km
Semi-major axis
6,925.651 km
Eccentricity
0.0001
Inclination
53.0538°
RAAN
227.1904°
Arg. of periapsis
93.6297°
True anomaly
266.4692°
Mean anomaly
266.4812°
Eccentric anomaly
266.4752°
Mean motion
3.76576 °/min
Orbital period
95.6 mins
BSTAR
-0.00015101
Loading maneuver chart data...
Computing Atmospheric mass density...
Loading historical data...
Loading historical data...
Loading historical data...
Loading historical data...
Loading historical data...
Loading historical data...
Loading historical data...

Documentation

Showing up to 5 results
|